Showing default

AO-91, 43017

Orbit data source: Space-Track

AO-91, 43017 is an American payload satellite in SSO that was launched on Sat, 18 Nov 2017 UTC via a DELTA 7920-10C launch vehicle from the Air Force Western Test Range (AFWTR). Payload-class satellites include a variety of spacecraft equipped with specific instruments for various scientific and technological missions. These include communications satellites like Starlink; space stations such as the ISS; scientific satellites like the Hubble; Earth observation satellites from companies like Planet Labs, Umbra, and HawkEye 360; GPS; miniature CubeSats for education and research; and military/defense satellites.

Loading next visibility...
Identifier
43017, 2017-073E
Orbit
SSO
Country
Flag of USUS
Related business
Manufacturer
Vanderbilt U
Mission
Operational Amateur Tech/Com
Bus & Motor
CUBESAT 1U, Unknown motor
Mass
1 kg wet, 1 kg dry
Launch date (UTC)
2017-11-18 (8 years ago)
Launch vehicle
DELTA 7920-10C
Launch site
Air Force Western Test Range (AFWTR)
Object type
Payload
Rocket body
Debris
Shape & HBR
Box, 0.1 m
Radar Cross Section
0.015 m², Small (<0.1 m²)

Expand to show TLE details & history
Last TLE update: 16 hours ago

TLE from 16 hours ago
0 AO-91
1 43017U 17073E   25310.15665750  .00015998  00000-0  76723-3 0  9999
2 43017  97.4987 177.2063 0165061  16.6044 344.0499 15.07665808431723
Epoch: 2025-11-06T03:45Z
TLE epoch observation values (Epoch: 2025-11-06T03:45:35.207Z)
Latitude
0.00005°
Longitude
75.19058°
Altitude
436.68 km
Speed
7.71 km/s
True Right ascension
11h 48m 49s
True Declination
0° 00' 00"
Sunlit
Object was in daylight at epoch
Visualization orbit readout
Latitude
Unknown
Longitude
Unknown
Altitude
Unknown
Speed
Unknown
Apparent Right ascension
Unknown
Apparent Declination
Unknown
Sunlit
N/A
Visualization observer readout
Local Sidereal Time
16:00:12
Azimuth
Unknown
Elevation
Unknown
Doppler factor
Unknown
Orbital elements
Apogee altitude
654.517 km
Perigee altitude
426.123 km
Semi-major axis
6,918.457 km
Eccentricity
0.01651
Inclination
97.4987°
RAAN
177.2063°
Arg. of periapsis
16.6044°
True anomaly
343.51962°
Mean anomaly
344.0499°
Eccentric anomaly
343.78583°
Mean motion
3.77163 °/min
Orbital period
95.45 mins
BSTAR
0.00076723
Loading maneuver chart data...
Computing Atmospheric mass density...
Loading historical data...
Loading historical data...
Loading historical data...
Loading historical data...
Loading historical data...
Loading historical data...
Loading historical data...

Documentation

Showing up to 5 results
|